Погода в Петровском

Россия / Ивановская область     56°38′43″N   40°19′04″E
темп.,
°C
ветер,
м/с
пор.,
м/с
влажн.,
%
обл.,
%
осадки,
мм/ч
давл.,
гПа
погр.,
м
28 сентября, вт
вт2800:00+6св4889100 0.3 1026813
03:00+5св3890100 0.3 1027619
06:00+5св489372 0.0 1029518
09:00+5всв498313 0.0 1030533
12:00+9всв356130 0.0 1031968
15:00+10св3450100 0.0 10321155
18:00+6ссв227123 0.0 103327
21:00+4ссв22805 0.0 103429
29 сентября, ср
ср2900:00+3ссв22855 0.0 103519
03:00+3с228835 0.0 103528
06:00+2ссз239199 0.0 103562
09:00+6с24737 0.0 1035299
12:00+10с236070 0.0 1034941
15:00+11с3461100 0.0 10341266
18:00+9с2274100 0.0 103458
21:00+7св227992 0.0 103430
30 сентября, чт
чт3000:00+8з117798 0.0 103411
03:00+8сз238199 0.0 103474
06:00+7сз2587100 0.0 1034152
09:00+8сз2583100 0.0 1034226
12:00+12сз237199 0.0 1034569
15:00+13сз33645 0.0 1034807
18:00+9зсз23865 0.0 103344
21:00+7сз22945 0.0 103436
1 октября, пт
пт100:00+7зсз22955 0.0 103441
03:00+6зсз24965 0.0 103472
06:00+6зсз25965 0.0 1034100
09:00+9сз24815 0.0 1034272
12:00+13зсз236616 0.0 1034774
15:00+14зсз336242 0.0 10331019
18:00+10зсз22835 0.0 103314
21:00+8зсз22895 0.0 103416
2 октября, сб
сб200:00+7зсз22935 0.0 103416
03:00+6з11945 0.0 103412
06:00+6з119422 0.0 103410
09:00+9з127835 0.0 1034220
12:00+14зюз12625 0.0 1033745
15:00+14зюз22585 0.0 10331041
18:00+10юз11771 0.0 103310
21:00+8юз11845 0.0 103310